GW0019 Weather Reports


time (UTC)temp
C
wind
direction
speed
KPH
gust
KPH
rain 1hr
cm
rain 24hr
cm
rain mn
cm
humidity
%
barometer
mb
20260507095556 7 68 4.8 6.4 0.00 0.00 0.00 71 1022.3
20260507095052 7 23 4.8 4.8 0.00 0.00 0.00 71 1021.8
20260507094548 7 23 4.8 4.8 0.00 0.00 0.00 71 1021.8
20260507094046 7 19 4.8 4.8 0.00 0.00 0.00 71 1022.0
20260507093543 7 50 6.4 8.0 0.00 0.00 0.00 71 1022.0
20260507093042 7 32 4.8 6.4 0.00 0.00 0.00 71 1021.9
20260507092537 7 29 3.2 3.2 0.00 0.00 0.00 71 1021.9
20260507092034 7 68 3.2 4.8 0.00 0.00 0.00 71 1021.9
20260507091532 7 60 1.6 4.8 0.00 0.00 0.00 71 1022.0
20260507091028 7 26 0.0 1.6 0.00 0.00 0.00 71 1022.2
20260507090523 7 60 0.0 1.6 0.00 0.00 0.00 71 1022.3
20260507090020 7 324 1.6 3.2 0.00 0.00 0.00 71 1022.2
20260507085517 7 0 3.2 3.2 0.00 0.00 0.00 71 1022.2
20260507085014 7 53 3.2 3.2 0.00 0.00 0.00 71 1022.3
20260507084511 7 14 0.0 3.2 0.00 0.00 0.00 71 1022.5
20260507084008 7 23 0.0 3.2 0.00 0.00 0.00 71 1021.9
20260507083504 7 341 4.8 4.8 0.00 0.00 0.00 71 1022.2
20260507083001 7 30 3.2 4.8 0.00 0.00 0.00 71 1021.9
20260507082457 7 30 3.2 4.8 0.00 0.00 0.00 71 1022.3
20260507081953 7 30 4.8 4.8 0.00 0.00 0.00 71 1022.2
20260507081449 7 30 4.8 4.8 0.00 0.00 0.00 71 1022.3
20260507080947 8 35 1.6 4.8 0.00 0.00 0.00 71 1022.2
20260507080443 8 35 1.6 4.8 0.00 0.00 0.00 71 1022.2
20260507075938 8 35 1.6 4.8 0.00 0.00 0.00 71 1022.0
20260507075435 8 35 1.6 4.8 0.00 0.00 0.00 71 1022.3
20260507074931 8 40 4.8 4.8 0.00 0.00 0.00 71 1022.4
20260507074428 8 26 4.8 6.4 0.00 0.00 0.00 71 1022.2
20260507073926 7 29 0.0 6.4 0.00 0.00 0.00 71 1022.0
20260507073422 7 29 0.0 6.4 0.00 0.00 0.00 71 1022.2
20260507072919 8 21 3.2 3.2 0.00 0.00 0.00 71 1022.4
20260507072416 8 21 3.2 3.2 0.00 0.00 0.00 71 1022.0
20260507071914 8 71 3.2 4.8 0.00 0.00 0.00 71 1021.8
20260507071411 8 71 3.2 4.8 0.00 0.00 0.00 71 1021.8
20260507070907 8 71 3.2 4.8 0.00 0.00 0.00 71 1022.3
20260507070405 8 71 3.2 4.8 0.00 0.00 0.00 71 1022.2
20260507065901 8 341 8.0 11.3 0.00 0.00 0.00 71 1022.0
20260507065358 8 40 8.0 9.7 0.00 0.00 0.00 71 1022.3
20260507064855 8 54 9.7 9.7 0.00 0.00 0.00 71 1022.3
20260507064353 8 54 9.7 9.7 0.00 0.00 0.00 71 1022.3
20260507063851 8 34 4.8 6.4 0.00 0.00 0.00 71 1022.4
20260507063348 8 47 4.8 6.4 0.00 0.00 0.00 71 1021.9
20260507062845 8 63 4.8 4.8 0.00 0.00 0.00 71 1022.3
20260507062341 8 60 4.8 6.4 0.00 0.00 0.00 71 1022.4
20260507061839 8 9 4.8 6.4 0.00 0.00 0.00 71 1022.3
20260507061337 8 61 4.8 8.0 0.00 0.00 0.00 71 1022.2
20260507060835 8 13 4.8 8.0 0.00 0.00 0.00 71 1022.0
20260507060332 8 337 6.4 8.0 0.00 0.00 0.00 71 1022.2
20260507055828 8 37 11.3 11.3 0.00 0.00 0.00 71 1021.9
20260507055323 8 28 3.2 4.8 0.00 0.00 0.00 71 1022.0
20260507054820 8 28 3.2 4.8 0.00 0.00 0.00 71 1021.7
20260507054316 8 76 4.8 6.4 0.00 0.00 0.00 71 1021.7
20260507053814 8 29 0.0 3.2 0.00 0.00 0.00 71 1021.9
20260507053312 8 29 1.6 1.6 0.00 0.00 0.00 71 1022.0
20260507052811 8 3 4.8 4.8 0.00 0.00 0.00 71 1021.7
20260507052307 8 0 1.6 1.6 0.00 0.00 0.00 71 1021.8
20260507051805 9 7 0.0 0.0 0.00 0.00 0.00 71 1021.8
20260507051302 9 7 0.0 0.0 0.00 0.00 0.00 71 1021.5
20260507050758 9 7 0.0 0.0 0.00 0.00 0.00 71 1021.6
20260507050254 9 337 0.0 0.0 0.00 0.00 0.00 71 1021.7
20260507045751 10 341 3.2 3.2 0.00 0.03 0.03 72 1021.7
20260507045247 10 0 3.2 3.2 0.00 0.03 0.03 72 1021.6
20260507044746 10 0 3.2 3.2 0.00 0.03 0.03 72 1021.6
20260507044242 10 0 3.2 3.2 0.00 0.03 0.03 72 1021.4
20260507043738 10 0 3.2 3.2 0.00 0.03 0.03 72 1021.5
20260507043235 10 8 3.2 3.2 0.00 0.03 0.03 72 1021.3
20260507042731 10 8 3.2 3.2 0.00 0.03 0.03 72 1021.4
20260507042226 10 8 3.2 3.2 0.00 0.03 0.03 72 1021.5
20260507041724 10 8 3.2 3.2 0.00 0.03 0.03 72 1021.4
20260507041220 10 8 3.2 3.2 0.00 0.03 0.03 72 1021.4
20260507040717 10 8 3.2 3.2 0.00 0.03 0.03 72 1021.5
20260507040213 10 348 0.0 3.2 0.00 0.03 0.03 72 1021.5
20260507035709 10 348 0.0 3.2 0.00 0.03 0.03 72 1021.3
20260507035205 10 356 3.2 4.8 0.00 0.03 0.03 72 1021.1
20260507034702 10 356 3.2 4.8 0.00 0.03 0.03 72 1021.5
20260507034200 10 356 3.2 4.8 0.00 0.03 0.03 72 1021.4
20260507033658 10 356 3.2 4.8 0.00 0.03 0.03 72 1021.3
20260507033155 10 356 3.2 4.8 0.00 0.03 0.03 72 1021.3
20260507032652 10 10 3.2 3.2 0.00 0.03 0.03 72 1021.3
20260507032148 10 10 3.2 3.2 0.00 0.03 0.03 72 1021.3
20260507031645 10 348 0.0 3.2 0.00 0.03 0.03 72 1021.3
20260507031141 10 348 0.0 3.2 0.00 0.03 0.03 72 1021.5
20260507030638 10 353 1.6 3.2 0.00 0.03 0.03 72 1021.6
20260507030136 10 331 0.0 3.2 0.00 0.03 0.03 72 1021.4
20260507025633 10 306 0.0 1.6 0.00 0.03 0.03 72 1021.4
20260507025130 10 297 0.0 1.6 0.00 0.03 0.03 72 1021.5
20260507024628 11 287 3.2 3.2 0.00 0.03 0.03 72 1021.1
20260507024125 11 287 3.2 3.2 0.00 0.03 0.03 72 1021.5
20260507023620 11 287 3.2 3.2 0.00 0.03 0.03 72 1021.4
20260507023118 11 287 3.2 3.2 0.00 0.03 0.03 72 1021.4
20260507022615 11 287 3.2 3.2 0.00 0.03 0.03 72 1021.2
20260507022110 11 287 3.2 3.2 0.00 0.03 0.03 72 1021.3
20260507021607 11 0 1.6 3.2 0.00 0.03 0.03 72 1021.3
20260507021103 11 0 1.6 3.2 0.00 0.03 0.03 72 1021.0
20260507020602 11 0 1.6 3.2 0.00 0.03 0.03 72 1021.0
20260507020057 12 346 1.6 1.6 0.00 0.03 0.03 72 1020.8
20260507015556 12 346 1.6 1.6 0.00 0.03 0.03 72 1020.3
20260507015053 12 346 1.6 1.6 0.00 0.03 0.03 72 1020.7
20260507014549 12 239 3.2 3.2 0.00 0.03 0.03 72 1020.7
20260507014045 12 239 3.2 3.2 0.00 0.03 0.03 72 1021.0
20260507013542 -17 0.0 0.0 0.00 0.03 0.03 1021.0
20260507013039 -17 0.0 0.0 0.00 0.03 0.03 1021.0
20260507012536 -17 0.0 0.0 0.00 0.03 0.03 1021.0
20260507012032 -17 0.0 0.0 0.00 0.03 0.03 1020.8
20260507011530 -17 0.0 0.0 0.00 0.03 0.03 1020.8
20260507011026 -17 0.0 0.0 0.00 0.03 0.03 1020.5
20260507010520 -17 0.0 0.0 0.00 0.03 0.03 1020.5
20260507010017 -17 0.0 0.0 0.00 0.03 0.03 1020.4
20260507005515 -17 0.0 0.0 0.00 0.03 0.03 1020.2
20260507005011 -17 0.0 0.0 0.00 0.03 0.03 1020.3
20260507004508 -17 0.0 0.0 0.00 0.03 0.03 1020.5
20260507004006 14 25 11.3 12.9 0.00 0.03 0.03 72 1020.4
20260507003501 14 25 11.3 12.9 0.00 0.03 0.03 72 1020.6
20260507002955 14 25 11.3 12.9 0.00 0.03 0.03 72 1020.6
20260507002453 14 25 11.3 12.9 0.00 0.03 0.03 72 1021.1
20260507001949 14 25 11.3 12.9 0.00 0.03 0.03 72 1020.7
20260507001446 14 25 11.3 12.9 0.00 0.03 0.03 72 1020.6
20260507000944 14 25 11.3 12.9 0.00 0.03 0.03 72 1020.6
20260507000439 14 25 11.3 12.9 0.00 0.03 0.03 72 1020.2
20260506235934 14 25 11.3 12.9 0.00 0.03 0.03 72 1020.1
20260506235432 14 25 11.3 12.9 0.00 0.03 0.03 72 1019.8
20260506234927 14 25 11.3 12.9 0.00 0.03 0.03 72 1019.8
20260506234426 14 25 11.3 12.9 0.00 0.03 0.03 72 1019.6
20260506233923 15 11 4.8 6.4 0.00 0.03 0.03 72 1019.7
20260506233419 15 11 4.8 6.4 0.00 0.03 0.03 72 1019.7
20260506232916 15 11 4.8 6.4 0.00 0.03 0.03 72 1019.4
20260506232412 14 46 6.4 9.7 0.00 0.03 0.03 72 1019.7
20260506231908 14 23 6.4 11.3 0.00 0.03 0.03 72 1019.9
20260506231406 15 12 8.0 8.0 0.00 0.03 0.03 73 1019.6
20260506230903 14 5 12.9 16.1 0.00 0.03 0.03 72 1019.6
20260506230400 14 25 12.9 16.1 0.00 0.03 0.03 72 1019.4
20260506225856 15 23 14.5 14.5 0.00 0.03 0.03 72 1019.5
20260506225353 15 61 12.9 14.5 0.00 0.03 0.03 72 1019.3
20260506224850 15 12 1.6 19.3 0.00 0.03 0.03 73 1018.9
20260506224348 15 20 4.8 11.3 0.00 0.03 0.03 72 1018.8
20260506223844 15 345 8.0 11.3 0.00 0.03 0.03 72 1019.1
20260506223339 15 57 3.2 14.5 0.00 0.03 0.03 73 1019.3
20260506222836 15 96 3.2 19.3 0.00 0.03 0.03 73 1019.1
20260506222331 15 7 3.2 16.1 0.00 0.03 0.03 73 1019.1
20260506221830 15 48 8.0 8.0 0.00 0.03 0.03 73 1019.1
20260506221327 15 23 12.9 20.9 0.00 0.03 0.03 73 1019.1
20260506220825 15 67 6.4 17.7 0.00 0.03 0.03 73 1019.2
20260506220320 15 95 0.0 3.2 0.00 0.03 0.03 73 1018.8
20260506215817 15 27 9.7 11.3 0.00 0.03 0.03 73 1018.7
20260506215312 15 327 6.4 8.0 0.00 0.03 0.03 73 1019.2
20260506214808 15 22 4.8 19.3 0.00 0.03 0.03 73 1019.2
20260506214305 15 55 6.4 8.0 0.00 0.03 0.03 73 1019.5
20260506213804 15 25 4.8 14.5 0.00 0.03 0.03 73 1019.6
20260506213300 15 165 1.6 6.4 0.00 0.03 0.03 73 1019.6
20260506212758 15 12 4.8 9.7 0.00 0.03 0.03 73 1019.4
20260506212253 15 26 4.8 6.4 0.00 0.03 0.03 73 1019.4
20260506211749 15 69 11.3 11.3 0.00 0.03 0.03 73 1019.7
20260506211245 15 70 0.0 8.0 0.00 0.03 0.03 73 1019.7
20260506210742 15 347 4.8 8.0 0.00 0.03 0.03 73 1019.9
20260506210239 15 16 3.2 12.9 0.00 0.03 0.03 73 1020.0
20260506205736 15 54 1.6 6.4 0.00 0.03 0.03 73 1020.2
20260506205232 15 346 4.8 9.7 0.00 0.03 0.03 72 1020.3
20260506204729 15 90 8.0 17.7 0.00 0.03 0.03 73 1020.3
20260506204226 15 354 6.4 9.7 0.00 0.03 0.03 72 1020.2
20260506203724 15 37 4.8 8.0 0.00 0.03 0.03 72 1020.3
20260506203215 15 270 8.0 9.7 0.00 0.03 0.03 73 1020.8
20260506202713 15 17 6.4 8.0 0.00 0.03 0.03 72 1020.7
20260506202209 15 324 4.8 9.7 0.00 0.03 0.03 72 1020.5
20260506201706 15 295 11.3 11.3 0.00 0.03 0.03 73 1020.6
20260506201203 15 36 3.2 4.8 0.00 0.03 0.03 73 1020.8
20260506200659 14 90 9.7 12.9 0.00 0.03 0.03 72 1020.6
20260506200156 15 115 3.2 3.2 0.00 0.03 0.03 72 1020.8
20260506195653 14 31 9.7 17.7 0.00 0.03 0.03 72 1020.9
20260506195149 15 320 8.0 8.0 0.00 0.03 0.03 73 1020.9
20260506194647 15 23 4.8 14.5 0.00 0.03 0.03 73 1020.7
20260506194143 14 19 6.4 16.1 0.00 0.03 0.03 72 1020.5
20260506193641 15 63 4.8 9.7 0.00 0.03 0.03 73 1020.5
20260506193138 15 25 9.7 11.3 0.00 0.03 0.03 73 1020.6
20260506192634 15 77 11.3 14.5 0.00 0.03 0.03 72 1020.8
20260506192130 15 125 3.2 6.4 0.00 0.03 0.03 73 1020.9
20260506191627 15 308 6.4 6.4 0.00 0.03 0.03 73 1021.0
20260506191123 15 34 3.2 12.9 0.00 0.03 0.03 73 1020.8
20260506190621 15 8 8.0 9.7 0.00 0.03 0.03 73 1020.9
20260506190118 15 289 0.0 14.5 0.00 0.03 0.03 73 1020.7
20260506185615 15 9 12.9 20.9 0.00 0.03 0.03 72 1020.8
20260506185111 14 81 3.2 8.0 0.00 0.03 0.03 72 1020.9
20260506184609 14 37 9.7 11.3 0.00 0.03 0.03 72 1021.0
20260506184106 14 90 6.4 9.7 0.00 0.03 0.03 72 1021.0
20260506183602 14 63 6.4 6.4 0.00 0.03 0.03 72 1021.1
20260506183058 14 34 6.4 12.9 0.00 0.03 0.03 72 1021.0
20260506182556 14 342 4.8 14.5 0.00 0.03 0.03 72 1021.4
20260506182053 14 21 14.5 16.1 0.00 0.03 0.03 72 1021.6
20260506181551 14 261 0.0 8.0 0.00 0.03 0.03 72 1021.2
20260506181047 13 355 1.6 14.5 0.00 0.03 0.03 72 1021.2
20260506180544 13 16 4.8 11.3 0.00 0.03 0.03 72 1021.1
20260506180040 13 70 8.0 11.3 0.00 0.03 0.03 72 1020.9
20260506175537 13 60 9.7 19.3 0.00 0.03 0.03 72 1020.6
20260506175033 13 86 8.0 11.3 0.00 0.03 0.03 72 1020.6
20260506174532 13 44 11.3 20.9 0.00 0.03 0.03 72 1020.7
20260506174027 13 57 9.7 16.1 0.00 0.03 0.03 72 1020.8
20260506173526 13 12 11.3 14.5 0.00 0.03 0.03 72 1021.0
20260506173022 13 358 6.4 9.7 0.00 0.03 0.03 72 1021.1
20260506172519 13 19 6.4 11.3 0.00 0.03 0.03 72 1021.3
20260506172015 12 28 14.5 17.7 0.00 0.03 0.03 72 1021.3
20260506171513 12 328 12.9 17.7 0.00 0.03 0.03 72 1021.3
20260506171010 13 30 8.0 8.0 0.00 0.03 0.03 72 1021.3
20260506170508 13 356 11.3 11.3 0.00 0.03 0.03 72 1021.0
20260506170000 13 77 1.6 3.2 0.00 0.03 0.03 72 1021.2
20260506165458 13 36 3.2 8.0 0.00 0.03 0.03 72 1021.3
20260506164954 12 63 8.0 17.7 0.00 0.03 0.03 72 1021.5
20260506164450 12 314 8.0 12.9 0.00 0.03 0.03 72 1021.5
20260506163948 12 95 9.7 16.1 0.00 0.03 0.03 72 1021.4
20260506163443 12 59 14.5 17.7 0.00 0.03 0.03 72 1021.4
20260506162938 12 28 14.5 19.3 0.00 0.03 0.03 72 1021.2
20260506162436 11 45 11.3 14.5 0.00 0.03 0.03 72 1021.8
20260506161928 11 63 3.2 6.4 0.00 0.03 0.03 72 1021.6
20260506161426 11 63 3.2 6.4 0.00 0.03 0.03 72 1021.7
20260506160923 11 343 8.0 8.0 0.00 0.03 0.03 72 1021.3
20260506160420 11 16 8.0 17.7 0.00 0.03 0.03 72 1021.3
20260506155917 12 14 3.2 17.7 0.00 0.03 0.03 72 1021.3
20260506155414 11 14 6.4 16.1 0.00 0.03 0.03 72 1021.2
20260506153536 11 22 14.5 14.5 0.00 0.03 0.03 72 1021.0
20260506153034 11 22 11.3 11.3 0.00 0.03 0.03 72 1020.7
20260506152531 11 21 9.7 11.3 0.00 0.03 0.03 72 1020.6
20260506152029 10 354 8.0 11.3 0.00 0.03 0.03 72 1020.8
20260506151526 10 47 4.8 9.7 0.00 0.03 0.03 72 1021.1
20260506151023 10 47 4.8 11.3 0.00 0.03 0.03 72 1020.9
20260506150520 10 346 4.8 9.7 0.00 0.03 0.03 72 1021.1
20260506150017 10 29 8.0 11.3 0.00 0.03 0.03 72 1020.8
20260506145513 10 22 3.2 4.8 0.00 0.03 0.03 72 1021.0
20260506145011 8 71 4.8 9.7 0.00 0.03 0.03 71 1020.8
20260506144507 8 71 4.8 9.7 0.00 0.03 0.03 71 1021.0
20260506144005 8 71 4.8 9.7 0.00 0.03 0.03 71 1020.8
20260506143502 8 71 4.8 9.7 0.00 0.03 0.03 71 1020.8
20260506143001 8 71 4.8 9.7 0.00 0.03 0.03 71 1021.1
20260506142458 8 71 4.8 9.7 0.00 0.03 0.03 71 1020.7
20260506141956 8 71 4.8 9.7 0.00 0.03 0.03 71 1020.8
20260506141453 8 71 4.8 9.7 0.00 0.03 0.03 71 1021.0
20260506140952 8 71 4.8 9.7 0.00 0.03 0.03 71 1020.8
20260506140448 8 40 4.8 11.3 0.00 0.03 0.03 71 1020.7
20260506135945 -17 0.0 0.0 0.00 0.03 0.03 1020.8
20260506135443 7 27 14.5 14.5 0.00 0.03 0.03 71 1020.7
20260506134938 7 27 14.5 14.5 0.00 0.03 0.03 71 1020.7
20260506134435 7 27 14.5 14.5 0.00 0.03 0.03 71 1020.6
20260506133932 7 27 14.5 14.5 0.00 0.03 0.03 71 1020.5
20260506133429 7 27 14.5 14.5 0.00 0.03 0.03 71 1020.5
20260506132926 7 27 14.5 14.5 0.00 0.03 0.03 71 1020.7
20260506132422 7 27 14.5 14.5 0.00 0.03 0.03 71 1020.6
20260506131920 7 27 14.5 14.5 0.00 0.03 0.03 71 1020.8
20260506131416 7 27 14.5 14.5 0.00 0.03 0.03 71 1020.6
20260506130914 7 27 14.5 14.5 0.00 0.03 0.03 71 1020.4
20260506130410 7 27 14.5 14.5 0.00 0.03 0.03 71 1020.7
20260506125908 7 27 14.5 14.5 0.00 0.03 0.03 71 1020.5
20260506125406 -17 0.0 0.0 0.00 0.03 0.03 1020.5
20260506124904 -17 0.0 0.0 0.00 0.03 0.03 1020.2
20260506124401 -17 0.0 0.0 0.00 0.03 0.03 1020.2
20260506123859 -17 0.0 0.0 0.00 0.03 0.03 1020.4
20260506123357 -17 0.0 0.0 0.00 0.03 0.03 1020.2
20260506122854 -17 0.0 0.0 0.00 0.03 0.03 1019.9
20260506122350 -17 0.0 0.0 0.00 0.03 0.03 1020.4
20260506121849 -17 0.0 0.0 0.00 0.03 0.03 1020.1
20260506121346 -17 0.0 0.0 0.00 0.03 0.03 1020.1
20260506120842 -17 0.0 0.0 0.00 0.03 0.03 1020.1
20260506120340 -17 0.0 0.0 0.00 0.03 0.03 1019.7
20260506115837 -17 0.0 0.0 0.00 0.03 0.03 1019.5
20260506115336 -17 0.0 0.0 0.00 0.03 0.03 1019.6
20260506114833 -17 0.0 0.0 0.00 0.03 0.03 1019.3
20260506114331 -17 0.0 0.0 0.00 0.03 0.03 1019.3
20260506113829 -17 0.0 0.0 0.00 0.03 0.03 1018.8
20260506113326 -17 0.0 0.0 0.00 0.03 0.03 1018.8
20260506112823 -17 0.0 0.0 0.00 0.03 0.03 1018.7
20260506112320 -17 0.0 0.0 0.00 0.03 0.03 1018.5
20260506111817 -17 0.0 0.0 0.00 0.03 0.03 1018.3
20260506111315 -17 0.0 0.0 0.00 0.03 0.03 1018.0
20260506110813 -17 0.0 0.0 0.00 0.03 0.03 1018.1
20260506110309 -17 0.0 0.0 0.00 0.03 0.03 1017.9
20260506105806 -17 0.0 0.0 0.00 0.03 0.03 1017.9
20260506105305 -17 0.0 0.0 0.00 0.03 0.03 1017.7
20260506104801 -17 0.0 0.0 0.00 0.03 0.03 1017.5
20260506104258 -17 0.0 0.0 0.00 0.03 0.03 1017.8
20260506103755 -17 0.0 0.0 0.00 0.03 0.03 1017.8
20260506103253 -17 0.0 0.0 0.00 0.03 0.03 1017.8
20260506102750 -17 0.0 0.0 0.00 0.03 0.03 1017.9
20260506102248 -17 0.0 0.0 0.00 0.03 0.03 1017.7
20260506101745 -17 0.0 0.0 0.00 0.03 0.03 1017.7
20260506101241 -17 0.0 0.0 0.00 0.03 0.03 1017.8
20260506100739 -17 0.0 0.0 0.00 0.03 0.03 1017.4
20260506100237 -17 0.0 0.0 0.00 0.03 0.03 1017.3